Flag for Germany Weather past 2 weeks in Eschweiler, North Rhine-Westphalia, Germany

Now
57 °F

Clear.


Feels Like: 53 °F
Forecast: 50 / 65 °F
Wind: 17 mph from Southwest

Location: Geilenkirchen Airport

Current Time: Jul 8, 2015 at 4:55:25 AM

Latest Report: Jul 8, 2015 at 3:50 AM


Visibility: 10 mi

Pressure: 29.83 "Hg

Humidity: 77%

Dew point: 50 °F

Location of EschweilerLocation

Historic Weather in Eschweiler — Graph

°F

Eschweiler temperature yesterday

Maximum temperature yesterday: 86 °F (at 11:50 AM)
Minimum temperature yesterday: 59 °F (at 4:50 AM)
Average temperature yesterday: 73 °F

Past Weeks' High & Low Weather Summary

 TemperatureHumidityPressure
High102 °F (Jul 2, 4:50 PM)94% (Jun 23, 3:50 AM)30.27 "Hg (Jun 23, 3:50 AM)
Low50 °F (Jun 23, 1:50 AM)26% (Jul 2, 4:50 PM)29.77 "Hg (Jul 7, 5:50 PM)
Average70 °F60%30.09 "Hg
* Reported Jun 23 1:50 AM — Jul 8 1:50 AM, Eschweiler, Weather by CustomWeather, © 2015

Note: Actual official high and low records may vary slightly from our data, if they occured in-between our weather recording intervals... More about our weather records

Advertising

Eschweiler weather history for previous 24 hours

 ConditionsComfort  
Time TempWeatherWind HumidityBarometerVisibility
1:50 AM
Wed, Jul 8
61 °FPassing clouds.14 mph83%29.80 "HgN/A
12:50 AM59 °FPassing clouds.9 mph88%29.83 "HgN/A
11:50 PM
Tue, Jul 7
64 °FRain showers. Passing clouds.23 mph68%29.83 "Hg6 mi
10:50 PM70 °FPassing clouds.13 mph64%29.77 "HgN/A
9:50 PM72 °FScattered clouds.14 mph61%29.77 "HgN/A
8:50 PM72 °FPartly sunny.17 mph61%29.77 "HgN/A
7:50 PM73 °FSunny.17 mph53%29.77 "Hg10 mi
6:50 PM77 °FSunny.15 mph51%29.77 "Hg10 mi
5:50 PM79 °FSunny.13 mph48%29.77 "Hg10 mi
4:50 PM81 °FSunny.17 mph42%29.80 "Hg10 mi
3:50 PM81 °FSunny.12 mph45%29.80 "Hg10 mi
2:50 PM86 °FSunny.18 mph38%29.80 "Hg10 mi
1:50 PM84 °FSunny.15 mph40%29.80 "Hg10 mi
12:50 PM86 °FSunny.13 mph38%29.83 "Hg10 mi
11:50 AM86 °FSunny.8 mph38%29.83 "Hg10 mi
10:50 AM84 °FSunny.7 mph43%29.83 "Hg10 mi
9:50 AM81 °FSunny.7 mph45%29.86 "Hg10 mi
8:50 AM75 °FSunny.6 mph50%29.89 "Hg10 mi
7:50 AM68 °FSunny.6 mph56%29.92 "Hg10 mi
6:50 AM61 °FSunny.2 mph72%29.92 "Hg10 mi
5:50 AM59 °FClear.5 mph72%29.95 "Hg10 mi
4:50 AM59 °FClear.6 mph72%29.98 "Hg10 mi
Weather by CustomWeather, © 2015

See weather overviewHow to use our weather pages